SL-16 DEB, 39908

Orbit data source: Space-Track

SL-16 DEB, 39908 is space debris in LEO originally from a launch on Fri, 26 Mar 1993 UTC launched from the Tyuratam Missile And Space Complex (TTMTR). Debris objects in space refer to the collection of defunct objects orbiting the Earth. Examples of debris include non-operational satellites, rocket bodies, and fragments generated from explosions, collisions, or faulty payload assembly.

Loading next visibility...
Identifier
39908, 1993-016CJ
Orbit
LEO
Country
Flag of CISCIS
Related business
Manufacturer
Unknown
Mission
Spacecraft
Bus & Motor
Unknown
Mass
Unknown
Launch date (UTC)
1993-03-26 (33 years ago)
Launch vehicle
Unknown
Launch site
Tyuratam Missile And Space Complex (TTMTR)
Object type
Payload
Rocket body
Debris
Shape & HBR
Unknown shape, 0.1 m
Radar Cross Section
Small (<0.1 m²)

Expand to show TLE details & history
Last TLE update: 8 hours ago

TLE from 8 hours ago
0 SL-16 DEB
1 39908U 93016CJ  25290.68107561  .00001061  00000-0  45918-3 0  9998
2 39908  71.0021 303.9987 0008650  11.8308 348.3022 14.26639805590832
Epoch: 2025-10-17T16:20Z
TLE epoch observation values (Epoch: 2025-10-17T16:20:44.932Z)
Latitude
-0.00006°
Longitude
32.3885°
Altitude
799.315 km
Speed
7.457 km/s
True Right ascension
20h 15m 59s
True Declination
0° 00' 00"
Sunlit
Object was in daylight at epoch
Visualization orbit readout
Latitude
Unknown
Longitude
Unknown
Altitude
Unknown
Speed
Unknown
Apparent Right ascension
Unknown
Apparent Declination
Unknown
Sunlit
N/A
Visualization observer readout
Local Sidereal Time
19:24:17
Azimuth
Unknown
Elevation
Unknown
Doppler factor
Unknown
Orbital elements
Apogee altitude
807.108 km
Perigee altitude
794.688 km
Semi-major axis
7,179.035 km
Eccentricity
0.00087
Inclination
71.0021°
RAAN
303.9987°
Arg. of periapsis
11.8308°
True anomaly
348.28208°
Mean anomaly
348.3022°
Eccentric anomaly
348.29214°
Mean motion
3.56816 °/min
Orbital period
100.89 mins
BSTAR
0.00045918
Loading maneuver chart data...
Computing Atmospheric mass density...
Loading historical data...
Loading historical data...
Loading historical data...
Loading historical data...
Loading historical data...
Loading historical data...
Loading historical data...

Documentation

Showing up to 5 results
|